Voltar ao catálogo

STARLINK-33648

AtivoComunicaçõesVLEO
NORAD 63371·PAYLOAD·🇺🇸 United States

Lançado Mar 26, 2025 de Vandenberg Space Force Base

Loading…

Próximas Passagens (próximas 24 horas)

TLE

AtualizadoSource: CelesTrak SupGP

Época: Sep 14, 2026, 22:26 UTC

1 63371C 25063J   26257.93520833  .00037780  00000+0  12148-2 0  2570
2 63371  53.1590 252.5130 0001419  92.0682  22.9489 15.31684999    15

Acompanhe STARLINK-33648 em tempo real com AllMySat

Download on the App Store